Location: Harwich
(41.7160°N, 69.9939°W)
Time: 11:16:59
(UTC+01:00)

BlueWalker 3 - Visible Passes

Search period start: 23 February 2024 00:00
Search period end: 04 March 2024 00:00
Orbit: 486 x 500 km, 53.2° (Epoch: 22 February)

Date Brightness Start Highest point End Pass type
(mag) Time Alt. Az. Time Alt. Az. Time Alt. Az.
23 Feb 4.2 01:16:04 10° NW 01:18:16 15° N 01:18:47 14° N visible
24 Feb 4.2 00:52:15 10° NW 00:54:28 15° N 00:56:01 12° NNE visible
25 Feb 4.3 00:28:25 10° NW 00:30:39 15° N 00:32:53 10° NNE visible
25 Feb 5.0 02:07:27 10° NNW 02:07:42 11° NNW 02:07:42 11° NNW visible
26 Feb 4.2 00:04:34 10° NW 00:06:49 15° N 00:09:04 10° NNE visible
26 Feb 4.4 01:43:38 10° NNW 01:44:52 15° NNW 01:44:52 15° NNW visible
27 Feb 4.0 01:19:48 10° NNW 01:22:02 17° N 01:22:02 17° N visible
28 Feb 3.8 00:55:56 10° NNW 00:58:32 17° NNE 00:59:11 17° NNE visible
29 Feb 3.9 00:32:04 10° NNW 00:34:38 17° NNE 00:36:21 13° NE visible
29 Feb 4.6 02:09:54 10° NW 02:10:50 16° NW 02:10:50 16° NW visible
01 Mar 3.9 00:08:09 10° NNW 00:10:42 17° NNE 00:13:16 10° NE visible
01 Mar 3.6 01:46:00 10° NW 01:48:01 28° NNW 01:48:01 28° NNW visible
02 Mar 2.5 01:22:05 10° NW 01:25:14 44° N 01:25:14 44° N visible
03 Mar 2.3 00:58:08 10° NW 01:01:48 47° NNE 01:02:30 41° ENE visible
03 Mar 5.2 02:36:47 10° WNW 02:37:00 11° WNW 02:37:00 11° WNW visible
